Flag for Germany Weather past 2 weeks in Euskirchen, North Rhine-Westphalia, Germany

54 °F

Passing clouds.

Feels Like: 54 °F
Forecast: 43 / 59 °F
Wind: 1 mph from Southeast

Location: Noervenich

Current Time: Oct 8, 2015 at 10:18:33 PM

Latest Report: Oct 8, 2015 at 9:20 PM

Visibility: N/A

Pressure: 30.18 "Hg

Humidity: 94%

Dew point: 52 °F

Location of EuskirchenLocation

Historic Weather in Euskirchen — Graph


Euskirchen temperature yesterday

Maximum temperature yesterday: 64 °F (at 12:20 PM)
Minimum temperature yesterday: 57 °F (at 3:20 AM)
Average temperature yesterday: 60 °F

Past Weeks' High & Low Weather Summary

High68 °F (Oct 6, 2:20 PM)100% (Sep 26, 5:20 AM)30.63 "Hg (Sep 26, 5:20 AM)
Low36 °F (Oct 2, 7:20 AM)42% (Sep 30, 3:20 PM)29.59 "Hg (Oct 6, 3:20 AM)
Average54 °F80%30.18 "Hg
* Reported Sep 23 8:20 PM — Oct 8 8:20 PM, Euskirchen, Weather by CustomWeather, © 2015

Note: Actual official high and low records may vary slightly from our data, if they occured in-between our weather recording intervals... More about our weather records


Euskirchen weather history for previous 24 hours

Time TempWeatherWind HumidityBarometerVisibility
8:20 PM
Thu, Oct 8
54 °FPassing clouds.1 mph94%30.18 "HgN/A
7:20 PM54 °FPartly sunny.1 mph94%30.15 "Hg6 mi
6:20 PM54 °FPartly sunny.2 mph94%30.15 "Hg6 mi
5:20 PM54 °FPartly sunny.3 mph94%30.15 "HgN/A
5:00 PM54 °FBroken clouds.3 mph94%30.15 "HgN/A
4:20 PM54 °FDrizzle. Broken clouds.5 mph94%30.15 "Hg4 mi
4:00 PM54 °FDrizzle. Fog.5 mph94%30.15 "Hg2 mi
3:20 PM54 °FDrizzle. Fog.6 mph88%30.15 "Hg2 mi
2:20 PM55 °FDrizzle. Broken clouds.6 mph82%30.15 "HgN/A
1:20 PM55 °FBroken clouds.7 mph88%30.12 "HgN/A
12:20 PM54 °FBroken clouds.9 mph94%30.12 "Hg6 mi
11:20 AM54 °FDrizzle. Partly sunny.9 mph94%30.12 "Hg4 mi
10:20 AM54 °FDrizzle. Partly sunny.8 mph88%30.09 "Hg4 mi
9:20 AM52 °FDrizzle. Fog.8 mph100%30.09 "Hg3 mi
8:20 AM52 °FDrizzle. Fog.3 mph100%30.07 "Hg2 mi
7:20 AM52 °FDrizzle. Fog.3 mph100%30.07 "Hg2 mi
6:20 AM52 °FDrizzle. Fog.1 mph100%30.04 "Hg2 mi
5:20 AM54 °FDrizzle. Fog.2 mph88%30.04 "Hg3 mi
4:20 AM55 °FLight rain. Overcast.No wind82%30.04 "HgN/A
3:20 AM55 °FPassing clouds.2 mph82%30.04 "HgN/A
2:20 AM55 °FPassing clouds.2 mph82%30.04 "HgN/A
1:20 AM55 °FPassing clouds.5 mph82%30.04 "HgN/A
12:20 AM55 °FPassing clouds.7 mph88%30.01 "HgN/A
11:20 PM
Wed, Oct 7
57 °FPassing clouds.10 mph82%30.01 "HgN/A
10:20 PM57 °FPartly cloudy.6 mph77%30.01 "HgN/A
Weather by CustomWeather, © 2015

See weather overviewHow to use our weather pages